This is the latest recevied weather packets stored in our database for station/object WY7EM. If no packets are shown the sender has not sent any weather packets the latest 10 day(s).
| Time | Temp. | Humidity | Pressure | Rain* | Wind** | Luminosity | Snow |
|---|---|---|---|---|---|---|---|
| 1777811252 | 13.33° C | 30% | 1016.3 hPa | 0 mm | - | 2 W/m² | - |
| 1777810949 | 13.89° C | 29% | 1015.8 hPa | 0 mm | - | 1 W/m² | - |
| 1777810646 | 13.89° C | 29% | 1016.1 hPa | 0 mm | - | 0 W/m² | - |
| 1777810343 | 13.33° C | 29% | 1016 hPa | 0 mm | - | 0 W/m² | - |
| 1777810038 | 13.89° C | 29% | 1015.8 hPa | 0 mm | - | 0 W/m² | - |
| 1777809737 | 13.89° C | 29% | 1015.8 hPa | 0 mm | - | 0 W/m² | - |
| 1777809434 | 13.89° C | 30% | 1016 hPa | 0 mm | - | 0 W/m² | - |
| 1777809132 | 13.89° C | 30% | 1015.8 hPa | 0 mm | - | 0 W/m² | - |
| 1777808830 | 13.89° C | 31% | 1015.7 hPa | 0 mm | - | 0 W/m² | - |
| 1777808526 | 13.89° C | 31% | 1015.8 hPa | 0 mm | - | 0 W/m² | - |
| 1777808223 | 13.89° C | 30% | 1016 hPa | 0 mm | - | 0 W/m² | - |
| 1777807922 | 13.89° C | 29% | 1015.7 hPa | 0 mm | - | 0 W/m² | - |
| 1777807619 | 13.89° C | 28% | 1016 hPa | 0 mm | - | 0 W/m² | - |
| 1777807316 | 14.44° C | 27% | 1015.6 hPa | 0 mm | - | 0 W/m² | - |
| 1777807012 | 15° C | 27% | 1015.7 hPa | 0 mm | - | 0 W/m² | - |
| 1777806709 | 15° C | 26% | 1015.8 hPa | 0 mm | - | 0 W/m² | - |
| 1777806404 | 15.56° C | 25% | 1015.8 hPa | 0 mm | - | 0 W/m² | - |
| 1777806102 | 15.56° C | 25% | 1016.1 hPa | 0 mm | - | 0 W/m² | - |
| 1777805798 | 15.56° C | 25% | 1015.8 hPa | 0 mm | - | 0 W/m² | - |
| 1777805495 | 15.56° C | 25% | 1016 hPa | 0 mm | - | 0 W/m² | - |
| 1777805193 | 15° C | 26% | 1015.7 hPa | 0 mm | - | 0 W/m² | - |
| 1777804891 | 15.56° C | 26% | 1016.1 hPa | 0 mm | - | 0 W/m² | - |
| 1777804589 | 16.11° C | 26% | 1016 hPa | 0 mm | - | 0 W/m² | - |
| 1777804286 | 14.44° C | 26% | 1016 hPa | 0 mm | - | 0 W/m² | - |
| 1777803983 | 13.89° C | 32% | 1015.8 hPa | 0 mm | - | 0 W/m² | - |
* Rain latest hour (hover to see other rain measurements)
** Current wind speed in m/s (hover to see current wind gust speed)